Regional Weather Roundup
Issued by NWS

Home | Current Version | Previous Version | Graphics & Text | Print | Product List | Glossary On
Versions: 1 2 3 4 5 6 7 8 9 10 11 12 13 14 15 16 17 18 19 20 21 22 23 24 25 26 27 28 29 30 31 32 33 34 35 36 37 38 39 40 41 42 43 44 45 46 47 48 49 50
000
ASUS45 KABQ 200001
RWRNM
NEW MEXICO REGIONAL WEATHER ROUNDUP
NATIONAL WEATHER SERVICE ALBUQUERQUE NM
600 PM MDT WED JUL 19 2017

NOTE: "FAIR" MEANS FEW OR NO CLOUDS BELOW 12,000 FEET AGL WITH NO
       SIGNIFICANT WEATHER OR OBSTRUCTIONS TO VISION.

      THIS PRODUCT IS RELEASED AS TWO VERSIONS.  ONE VERSION NEAR
      THE TOP OF THE HOUR CONTAINING PRELIMINARY DATA FROM ALBUQUERQUE
      AND OTHER STATIONS.  A FINAL VERSION WITH ADDITIONAL DATA IS
      ISSUED ABOUT 10 MINUTES AFTER THE HOUR.

NMZ501-503-504-510>518-200100-
NORTHWEST PLATEAU/NORTHCENTRAL MOUNTAINS

CITY           SKY/WX    TMP DP  RH WIND       PRES   REMARKS
FARMINGTON     FAIR      93  43  17 VRB6      30.09F
6HR MIN TEMP:  86; 6HR MAX TEMP:  95;

LOS ALAMOS     FAIR      85  42  22 S10G23    30.30F
SANTA FE       FAIR      90  43  19 S22G31    30.21F
6HR MIN TEMP:  84; 6HR MAX TEMP:  92;

TAOS           FAIR      82  45  26 S7          N/A
ANGEL FIRE     FAIR      77  47  35 S14       30.40F

$$
NMZ402-403-502-505>509-200100-
WESTCENTRAL MOUNTAINS/SOUTHWEST MOUNTAINS

CITY           SKY/WX    TMP DP  RH WIND       PRES   REMARKS
GALLUP         FAIR      88  51  28 NE5       30.20F
6HR MIN TEMP:  74; 6HR MAX TEMP:  91; 6HR PCP: TRACE;

GRANTS         FAIR      89  35  14 S8        30.23F
SILVER CITY    PTSUNNY   86  48  26 E10G22    30.15F

$$
NMZ407-409-411-412-200100-
SOUTHERN DESERTS

CITY           SKY/WX    TMP DP  RH WIND       PRES   REMARKS
DEMING         PTSUNNY   77  60  55 E28G43    30.12R THUNDER
6HR MIN TEMP:  77; 6HR MAX TEMP:  94;

LAS CRUCES     CLOUDY    69  65  86 SE24      30.17F
ALAMOGORDO     FAIR      77  59  53 S24G33    30.15R
T OR C         PTSUNNY   93  48  21 SE12G17   30.10F THUNDER
6HR MIN TEMP:  88; 6HR MAX TEMP:  94;


$$
NMZ519>523-200100-
CENTRAL VALLEYS/CENTRAL HIGHLANDS

CITY           SKY/WX    TMP DP  RH WIND       PRES   REMARKS
ALBUQUERQUE    FAIR      91  44  19 SE7       30.13F
6HR MIN TEMP:  84; 6HR MAX TEMP:  94;

DOUBLE EAGLE   MOSUNNY   91  48  22 SE9       30.18F
MORIARTY ARPT  FAIR      89  38  16 SE14      30.24F
6HR MIN TEMP:  84; 6HR MAX TEMP:  93;

CLINES CORNERS FAIR      83  39  21 SE7G23    30.32F
6HR MIN TEMP:  79; 6HR MAX TEMP:  87;

BELEN          NOT AVBL
SOCORRO        FAIR      92  41  16 S7        30.09F
6HR MIN TEMP:  85; 6HR MAX TEMP:  94;


$$
NMZ524>526-539-540-200100-
SOUTHCENTRAL MOUNTAINS

CITY           SKY/WX    TMP DP  RH WIND       PRES   REMARKS
RUIDOSO        FAIR      77  52  41 SE21G29   30.32F

$$
NMZ527>531-200100-
NORTHEAST HIGHLANDS/NORTHEAST PLAINS

CITY           SKY/WX    TMP DP  RH WIND       PRES   REMARKS
LAS VEGAS      FAIR      83  41  22 S17G24    30.30F
6HR MIN TEMP:  79; 6HR MAX TEMP:  86;

RATON          FAIR      88  43  20 S21G29    30.20F
6HR MIN TEMP:  86; 6HR MAX TEMP:  92;

CLAYTON        FAIR      91  42  18 S16G25    30.14F
6HR MIN TEMP:  89; 6HR MAX TEMP:  95;


$$
NMZ532>537-200100-
EASTCENTRAL PLAINS

CITY           SKY/WX    TMP DP  RH WIND       PRES   REMARKS
SANTA ROSA     FAIR      91  47  22 S9        30.14F
TUCUMCARI      FAIR      96  51  21 S14       30.07F
6HR MIN TEMP:  91; 6HR MAX TEMP:  99;

CANNON AFB     NOT AVBL
CLOVIS AIRPORT FAIR      91  56  30 S18       30.16F

$$
NMZ028-029-538-200100-
SOUTHEAST PLAINS

CITY           SKY/WX    TMP DP  RH WIND       PRES   REMARKS
ROSWELL        FAIR      93  56  28 S22       30.10R
6HR MIN TEMP:  87; 6HR MAX TEMP:  95;

ARTESIA        FAIR      82  63  51 SW23      30.11R
CARLSBAD       LGT RAIN  82  64  54 SW17      30.08F
6HR MIN TEMP:  81; 6HR MAX TEMP:  94; 6HR PCP: TRACE;

HOBBS          MOSUNNY   73  63  68 S9        30.15F


$$




USA.gov is the U.S. government's official web portal to all federal, state and local government web resources and services.